Weather History for PHOG - June, 2012

Change the Weather History Date:

Monday, June 4, 2012

  Actual Average Record
Temperature  
Mean Temperature 79 °F 77 °F  
Max Temperature 85 °F 86 °F 91 °F (1951)
Min Temperature 72 °F 69 °F 60 °F (1976)
Degree Days  
Heating Degree Days 0 0  
Month to date heating degree days 0 0  
Since 1 June heating degree days 0 0  
Since 1 July heating degree days 0 0  
Cooling Degree Days 14 12  
Month to date cooling degree days 49 48  
Year to date cooling degree days 1374 1307  
Since 1 June cooling degree days 49 48  
Growing Degree Days 28 (Base 50)    
Moisture  
Dew Point 64 °F    
Average Humidity 63    
Maximum Humidity 79    
Minimum Humidity 47    
Precipitation  
Precipitation T in 0.01 in 0.18 in (2011)
Month to date precipitation 0.10 0.03  
Year to date precipitation 3.72 9.53  
Snow  
Snow 0.00 in - - ()
Month to date snowfall 0.0  
Since 1 June snowfall 0.0  
Since 1 July snowfall 0.0  
Snow Depth 0.00 in    
Sea Level Pressure  
Sea Level Pressure 30.07 in    
Wind  
Wind Speed 19 mph (NE)    
Max Wind Speed 30 mph    
Max Gust Speed 38 mph    
Visibility 10 miles    
Events Rain    
T = Trace of Precipitation, MM = Missing Value Source: NWS Daily Summary

Daily Weather History Graph

Daily Weather History Graph

Search for Another Location

Airport or City:

Trip Planner

Search our weather history database for the weather conditions in past years. The results will help you decide how hot, cold, wet, or windy it might be!

Date:

Astronomy

Jun. 04, 2012 Rise Set
Actual Time 5:43 AM HST 7:04 PM HST
Civil Twilight 5:19 AM HST 7:29 PM HST
Nautical Twilight 4:50 AM HST 7:58 PM HST
Astronomical Twilight 4:19 AM HST 8:28 PM HST
Moon 7:47 PM HST (6/4) 6:01 AM HST (6/4)
Length of Visible Light 14h 10m
Length of Day
13h 20m
Full, 100% of the Moon is Illuminated
Jun 4
Full
Jun 11
Last Quarter
Jun 19
New
Jun 26
First Quarter
Jul 3
Full

Hourly Weather History & Observations

Time (HST) Temp. Heat Index Dew Point Humidity Pressure Visibility Wind Dir Wind Speed Gust Speed Precip Events Conditions
12:54 AM 72.0 °F - 62.1 °F 71% 30.08 in 10.0 mi NE 16.1 mph 21.9 mph N/A   Clear
1:54 AM 72.0 °F - 63.0 °F 73% 30.05 in 10.0 mi ENE 11.5 mph 19.6 mph N/A   Clear
2:54 AM 73.0 °F - 64.0 °F 73% 30.04 in 10.0 mi NE 17.3 mph 23.0 mph N/A   Partly Cloudy
3:54 AM 72.0 °F - 64.9 °F 78% 30.05 in 10.0 mi NE 11.5 mph - N/A   Scattered Clouds
4:38 AM 71.6 °F - 64.4 °F 78% 30.03 in 9.0 mi NE 13.8 mph 23.0 mph 0.00 in   Overcast
4:54 AM 72.0 °F - 64.9 °F 78% 30.05 in 10.0 mi NE 17.3 mph 23.0 mph 0.00 in Rain Light Rain
5:44 AM 71.6 °F - 64.4 °F 78% 30.04 in 10.0 mi NE 11.5 mph 19.6 mph 0.00 in   Overcast
5:54 AM 73.0 °F - 64.9 °F 76% 30.06 in 10.0 mi NE 15.0 mph 20.7 mph 0.00 in   Overcast
6:54 AM 73.9 °F - 64.9 °F 73% 30.08 in 10.0 mi ENE 11.5 mph - N/A   Mostly Cloudy
7:54 AM 75.9 °F - 64.9 °F 69% 30.09 in 10.0 mi ENE 17.3 mph 24.2 mph 0.00 in   Scattered Clouds
8:54 AM 79.0 °F - 64.0 °F 60% 30.10 in 10.0 mi ENE 18.4 mph 25.3 mph N/A   Scattered Clouds
9:54 AM 80.1 °F 81.5 °F 63.0 °F 56% 30.10 in 10.0 mi NE 23.0 mph 31.1 mph N/A   Scattered Clouds
10:54 AM 80.1 °F 81.9 °F 64.9 °F 60% 30.10 in 10.0 mi NE 23.0 mph 29.9 mph N/A   Scattered Clouds
11:54 AM 82.0 °F 82.7 °F 61.0 °F 49% 30.08 in 10.0 mi NE 21.9 mph 28.8 mph N/A   Scattered Clouds
12:54 PM 84.0 °F 85.8 °F 64.9 °F 53% 30.06 in 10.0 mi NE 26.5 mph 33.4 mph N/A   Scattered Clouds
1:54 PM 82.9 °F 84.4 °F 64.0 °F 53% 30.05 in 10.0 mi NE 27.6 mph 33.4 mph N/A   Partly Cloudy
2:54 PM 81.0 °F 82.5 °F 64.0 °F 56% 30.05 in 10.0 mi NE 27.6 mph 36.8 mph N/A   Partly Cloudy
3:54 PM 81.0 °F 82.7 °F 64.9 °F 58% 30.04 in 10.0 mi NE 27.6 mph 34.5 mph N/A   Scattered Clouds
4:54 PM 79.0 °F - 64.9 °F 62% 30.04 in 10.0 mi ENE 24.2 mph 32.2 mph N/A   Partly Cloudy
5:54 PM 75.9 °F - 63.0 °F 64% 30.06 in 10.0 mi ENE 16.1 mph 31.1 mph N/A   Scattered Clouds
6:54 PM 75.0 °F - 63.0 °F 66% 30.07 in 10.0 mi NE 19.6 mph 24.2 mph N/A   Scattered Clouds
7:54 PM 75.0 °F - 64.0 °F 69% 30.09 in 10.0 mi NE 15.0 mph - N/A   Clear
8:54 PM 73.9 °F - 64.0 °F 71% 30.10 in 10.0 mi NE 13.8 mph - N/A   Clear
9:54 PM 73.9 °F - 64.0 °F 71% 30.12 in 10.0 mi NE 13.8 mph 20.7 mph N/A   Clear
10:54 PM 73.9 °F - 64.9 °F 73% 30.12 in 10.0 mi NE 13.8 mph - N/A   Scattered Clouds
11:54 PM 73.0 °F - 64.9 °F 76% 30.11 in 10.0 mi NE 17.3 mph - N/A   Clear